| time (UTC) | temp C | wind direction | speed KPH | gust KPH | rain 1hr cm | rain 24hr cm | rain mn cm | humidity % | barometer mb |
| 20260504024502 | 7 | 137 | 0.0 | 0.0 | 0.00 | 0.00 | 0.00 | 70 | 1015.7 |
| 20260504023003 | 8 | 137 | 0.0 | 0.0 | 0.00 | 0.00 | 0.00 | 68 | 1015.6 |
| 20260504021503 | 8 | 141 | 0.0 | 1.6 | 0.00 | 0.00 | 0.00 | 69 | 1015.7 |
| 20260504020003 | 8 | 141 | 0.0 | 0.0 | 0.00 | 0.00 | 0.00 | 69 | 1015.4 |
| 20260504014501 | 9 | 141 | 0.0 | 0.0 | 0.00 | 0.00 | 0.00 | 64 | 1015.2 |
| 20260504013001 | 10 | 141 | 0.0 | 1.6 | 0.00 | 0.00 | 0.00 | 62 | 1015.3 |
| 20260504011501 | 10 | 141 | 0.0 | 1.6 | 0.00 | 0.00 | 0.00 | 60 | 1015.0 |
| 20260504010003 | 11 | 141 | 0.0 | 1.6 | 0.00 | 0.00 | 0.00 | 58 | 1014.9 |
| 20260504004505 | 11 | 141 | 0.0 | 1.6 | 0.00 | 0.00 | 0.00 | 55 | 1014.7 |
| 20260504003001 | 12 | 124 | 1.6 | 1.6 | 0.00 | 0.00 | 0.00 | 53 | 1014.5 |
| 20260504001502 | 13 | 146 | 1.6 | 3.2 | 0.00 | 0.00 | 0.00 | 48 | 1014.4 |
| 20260504000003 | 15 | 253 | 1.6 | 4.8 | 0.00 | 0.00 | 0.00 | 44 | 1014.4 |
| 20260503234501 | 16 | 262 | 3.2 | 6.4 | 0.00 | 0.00 | 0.00 | 43 | 1014.3 |
| 20260503233002 | 17 | 255 | 1.6 | 6.4 | 0.00 | 0.00 | 0.00 | 40 | 1014.2 |
| 20260503231500 | 17 | 221 | 3.2 | 9.7 | 0.00 | 0.00 | 0.00 | 40 | 1014.2 |
| 20260503230004 | 17 | 162 | 3.2 | 8.0 | 0.00 | 0.00 | 0.00 | 40 | 1014.0 |
| 20260503223000 | 17 | 231 | 3.2 | 12.9 | 0.00 | 0.00 | 0.00 | 41 | 1014.0 |
| 20260503221500 | 17 | 185 | 4.8 | 12.9 | 0.00 | 0.00 | 0.00 | 40 | 1014.0 |
| 20260503220002 | 18 | 88 | 3.2 | 9.7 | 0.00 | 0.00 | 0.00 | 38 | 1014.0 |
| 20260503214500 | 18 | 292 | 8.0 | 14.5 | 0.00 | 0.00 | 0.00 | 40 | 1014.0 |
| 20260503211500 | 18 | 8 | 4.8 | 19.3 | 0.00 | 0.00 | 0.00 | 37 | 1014.2 |
| 20260503210003 | 19 | 293 | 3.2 | 16.1 | 0.00 | 0.00 | 0.00 | 36 | 1014.2 |
| 20260503204500 | 18 | 171 | 6.4 | 19.3 | 0.00 | 0.00 | 0.00 | 39 | 1014.3 |
| 20260503203000 | 18 | 161 | 6.4 | 16.1 | 0.00 | 0.00 | 0.00 | 36 | 1014.4 |
| 20260503201500 | 18 | 225 | 4.8 | 12.9 | 0.00 | 0.00 | 0.00 | 33 | 1014.6 |
| 20260503200002 | 18 | 287 | 4.8 | 14.5 | 0.00 | 0.00 | 0.00 | 35 | 1014.8 |
| 20260503194459 | 18 | 260 | 4.8 | 12.9 | 0.00 | 0.00 | 0.00 | 34 | 1015.0 |
| 20260503192959 | 17 | 122 | 6.4 | 14.5 | 0.00 | 0.00 | 0.00 | 34 | 1015.2 |
| 20260503191500 | 17 | 340 | 3.2 | 9.7 | 0.00 | 0.00 | 0.00 | 37 | 1015.4 |
| 20260503190003 | 17 | 261 | 6.4 | 12.9 | 0.00 | 0.00 | 0.00 | 36 | 1015.4 |
| 20260503184500 | 16 | 322 | 9.7 | 25.7 | 0.00 | 0.00 | 0.00 | 34 | 1015.7 |
| 20260503183000 | 17 | 294 | 4.8 | 14.5 | 0.00 | 0.00 | 0.00 | 38 | 1015.9 |
| 20260503181459 | 16 | 281 | 4.8 | 9.7 | 0.00 | 0.00 | 0.00 | 36 | 1016.1 |
| 20260503180001 | 15 | 212 | 4.8 | 16.1 | 0.00 | 0.00 | 0.00 | 38 | 1016.1 |
| 20260503174501 | 16 | 264 | 3.2 | 9.7 | 0.00 | 0.00 | 0.00 | 45 | 1016.3 |
| 20260503173000 | 15 | 26 | 4.8 | 14.5 | 0.00 | 0.00 | 0.00 | 42 | 1016.5 |
| 20260503171500 | 15 | 269 | 3.2 | 8.0 | 0.00 | 0.00 | 0.00 | 44 | 1016.8 |
| 20260503081458 | 4 | 119 | 0.0 | 1.6 | 0.00 | 0.00 | 0.00 | 82 | 1015.4 |
| 20260503071458 | 3 | 120 | 0.0 | 0.0 | 0.00 | 0.00 | 0.00 | 81 | 1015.0 |
| 20260503054501 | 6 | 119 | 0.0 | 1.6 | 0.00 | 0.00 | 0.00 | 73 | 1014.8 |
| 20260503053001 | 6 | 119 | 1.6 | 1.6 | 0.00 | 0.00 | 0.00 | 73 | 1014.7 |
| 20260503051501 | 7 | 129 | 0.0 | 1.6 | 0.00 | 0.00 | 0.00 | 72 | 1014.7 |
| 20260503050005 | 7 | 148 | 0.0 | 1.6 | 0.00 | 0.00 | 0.00 | 70 | 1014.8 |
| 20260503044501 | 7 | 269 | 0.0 | 1.6 | 0.00 | 0.00 | 0.00 | 69 | 1014.9 |
| 20260503041502 | 7 | 136 | 0.0 | 0.0 | 0.00 | 0.00 | 0.00 | 71 | 1014.8 |
| 20260503040004 | 6 | 204 | 0.0 | 0.0 | 0.00 | 0.00 | 0.00 | 76 | 1014.8 |
| 20260503033001 | 6 | 248 | 0.0 | 0.0 | 0.00 | 0.00 | 0.00 | 76 | 1014.5 |
| 20260503030003 | 6 | 124 | 0.0 | 0.0 | 0.00 | 0.00 | 0.00 | 70 | 1014.1 |